Temp
18 18 18 17 18 18 18 18 17 17 17 17 17 17 17 16 16 16 16 16 16 16 16 16 15 15 15 15 15 15 15 14 15 15 15 15 15 15 15 15 15 15
18 18 17 17 17 18 18 18 18 18 17 17 17 17 17 16 16 16 16 16 16 16 16 15 15 15 15 15 15 14 14 14 14 14 15 15 15 15 15 15 15 14
18 17 17 17 17 17 17 17 17 17 17 17 17 17 17 16 16 16 16 16 16 16 15 15 15 15 15 15 15 14 14 14 14 14 14 14 14 14 14 14 14 14
18 17 17 17 17 17 17 17 16 17 17 17 17 17 16 16 16 16 16 16 16 15 15 15 15 14 14 14 14 14 13 13 14 14 14 14 14 14 14 13 13 13
17 17 17 18 17 17 17 16 16 16 17 17 17 16 16 16 16 16 16 15 15 15 15 15 14 14 14 14 14 13 13 13 13 13 13 13 13 13 13 13 13 12
17 17 17 18 17 17 17 17 17 17 16 16 16 16 16 16 16 16 16 15 15 15 14 14 14 14 13 13 13 13 13 13 13 13 13 13 13 13 13 12 12 12
17 17 17 17 17 17 17 17 17 16 16 16 16 16 16 16 16 16 15 15 15 15 14 14 14 13 13 13 13 13 12 12 12 12 12 13 12 12 12 12 12 11
17 17 17 17 17 17 17 17 16 16 16 16 16 16 16 16 15 15 15 15 15 14 14 14 13 13 13 13 13 12 12 12 12 12 12 12 12 12 11 11 11 11
17 17 17 17 17 17 17 16 16 16 16 16 16 16 16 16 15 15 15 15 14 14 14 13 13 13 13 12 12 12 12 12 12 12 12 12 12 12 11 11 11 11
17 17 17 17 17 17 16 16 16 16 16 16 16 16 16 15 15 15 15 15 14 14 13 13 13 13 12 12 12 12 12 12 11 11 12 12 12 11 11 11 11 11
17 17 17 17 17 16 16 16 16 16 16 16 16 16 16 15 15 15 15 14 14 14 13 13 13 12 12 12 12 12 12 12 11 11 11 12 11 11 11 11 11 11
16 16 16 17 17 16 16 16 16 16 15 16 16 16 15 15 15 15 15 14 14 14 13 13 13 12 12 12 12 11 12 11 11 11 11 11 11 11 11 11 11 11
16 16 16 16 16 16 16 16 15 15 15 15 16 16 15 15 15 15 14 14 14 13 13 13 12 12 12 12 11 11 11 11 11 11 11 11 11 11 10 10 10 10
17 16 16 16 16 16 16 16 15 15 15 16 16 15 15 15 15 15 14 14 14 13 13 13 12 12 12 12 11 11 11 11 11 11 11 10 10 10 10 10 10 10
17 16 16 16 16 16 16 15 15 15 15 15 15 15 15 15 15 15 14 14 13 13 13 12 12 12 12 11 11 11 11 11 11 11 11 10 10 10 10 10 10 10
16 16 16 16 15 15 15 15 15 15 15 15 15 15 15 15 15 14 14 14 13 13 12 12 12 12 12 12 11 11 11 11 11 11 10 10 10 10 10 10 10 10
16 16 16 16 15 15 15 15 15 14 14 14 15 14 15 15 14 14 14 14 13 13 12 12 12 12 12 12 11 11 11 11 11 11 10 10 10 10 10 10 9 9
16 16 15 15 15 15 15 15 14 14 14 14 14 14 14 14 14 14 14 13 13 13 12 12 12 12 12 12 11 11 11 11 11 11 11 10 10 10 10 10 9 9
16 16 15 15 15 15 15 15 14 14 14 14 14 14 14 13 13 13 13 13 13 13 12 12 12 12 12 11 11 11 11 11 11 11 11 10 9 9 10 10 9 9
16 15 15 15 15 15 15 14 14 14 14 14 14 14 13 12 13 13 13 13 13 13 13 12 12 12 12 11 11 11 11 11 11 11 11 10 10 10 10 10 9 9
16 15 15 15 15 15 14 14 14 14 14 14 14 14 13 13 13 13 13 13 13 13 13 12 12 12 12 11 11 11 11 11 11 11 10 10 10 10 10 10 10 10
16 15 15 15 14 14 14 14 14 14 13 14 14 13 13 13 13 13 13 13 13 13 12 12 12 12 12 11 11 11 11 11 11 11 10 10 10 10 10 10 10 10
16 15 15 14 14 14 14 14 14 13 13 13 13 12 12 12 13 13 13 13 13 12 12 12 12 12 12 12 11 11 11 11 11 10 10 10 10 10 10 10 10 10
16 15 15 14 14 14 14 14 14 14 14 13 13 12 12 12 12 13 13 13 13 12 12 12 12 12 12 11 11 11 11 11 11 10 10 10 10 10 10 10 10 10
15 15 14 14 14 15 15 14 14 14 13 13 12 13 12 12 12 12 12 12 12 12 12 12 13 12 12 11 11 11 11 11 11 10 10 10 10 10 10 9 9 10
15 15 14 14 15 15 15 14 13 13 12 12 12 12 12 12 12 12 11 11 11 11 12 12 12 12 11 11 11 11 11 11 10 10 10 10 10 10 10 9 9 9
Height
777 779 782 785 788 791 795 798 801 803 805 806 808 810 812 814 815 816 818 818 819 819 820 821 823 824 825 826 827 827 828 829 829 830 831 832 833 834 835 835 836 837
775 777 780 783 786 789 793 796 798 801 803 805 807 809 811 813 814 815 816 817 818 818 819 821 822 823 824 825 826 827 827 828 829 830 831 832 833 833 834 835 836 837
773 775 777 780 783 787 790 793 796 798 801 803 805 808 810 811 812 814 815 815 816 817 818 820 821 822 823 824 825 826 826 827 828 829 830 831 832 833 834 835 836 837
770 772 774 778 781 785 788 791 794 797 799 801 804 806 808 810 811 812 813 814 815 816 817 819 820 821 823 823 824 825 826 827 828 829 830 831 832 833 834 835 836 837
768 770 772 776 779 782 786 788 791 794 797 799 802 804 806 808 809 810 812 813 814 815 817 818 820 821 822 823 824 824 825 826 827 828 830 831 832 833 834 835 836 837
766 768 771 774 777 780 783 786 789 792 794 797 800 802 804 806 807 809 810 811 813 814 816 817 818 820 821 822 823 824 825 826 827 828 830 831 832 833 834 835 836 837
763 766 768 772 775 778 781 784 787 789 792 795 798 800 802 804 806 807 809 810 811 813 814 816 817 819 820 821 822 824 824 825 827 828 830 831 832 833 834 835 836 838
760 763 766 770 773 776 779 782 784 787 790 793 795 798 800 802 804 806 808 809 810 812 813 815 816 818 819 820 822 823 824 825 827 828 829 830 831 832 834 835 837 838
758 760 764 767 770 774 777 779 782 785 788 791 793 796 798 801 803 805 806 808 809 811 812 814 815 817 818 820 821 823 824 825 826 827 829 830 831 832 834 835 837 838
755 758 761 764 768 771 774 777 780 783 786 789 791 794 797 799 802 803 805 806 808 810 811 813 815 816 818 819 821 822 823 825 826 827 828 829 831 832 834 835 837 838
752 755 758 760 764 768 772 775 778 781 784 787 790 792 795 798 800 802 803 805 807 808 810 812 814 816 817 819 821 822 823 825 826 827 828 830 831 832 834 836 837 838
750 752 754 757 761 765 769 773 776 779 782 785 788 790 793 796 798 800 802 804 806 807 809 811 813 815 816 818 820 822 823 824 826 827 828 830 831 833 835 836 837 838
745 748 751 755 758 762 767 771 774 777 780 783 786 788 791 793 796 798 801 803 805 806 808 810 812 814 816 817 819 821 822 824 825 827 828 830 832 834 835 836 837 838
742 746 749 753 756 759 764 768 772 775 777 780 783 786 788 791 794 797 799 802 803 805 807 809 811 812 814 816 818 820 822 823 825 826 828 830 832 834 835 836 837 838
740 744 747 751 755 757 761 766 770 772 775 777 780 783 786 789 792 795 797 799 802 804 806 808 809 811 813 815 817 819 821 823 824 826 828 830 832 833 834 836 837 838
737 741 745 749 752 754 758 763 767 770 772 774 777 781 784 787 790 793 795 797 799 802 804 806 808 810 812 814 816 818 820 822 824 826 828 829 831 832 834 835 837 838
735 739 742 746 750 753 755 759 764 767 770 772 776 779 782 785 788 790 792 794 797 799 801 803 805 808 810 813 815 817 819 821 823 825 827 829 831 832 834 835 836 838
732 736 740 743 747 750 753 757 762 766 768 770 773 777 780 782 785 787 790 793 795 797 799 801 803 806 808 811 813 816 818 820 822 825 826 828 830 832 834 835 836 837
730 733 737 741 744 748 752 756 761 764 766 767 769 773 777 780 784 787 789 791 793 796 798 799 802 804 807 809 812 815 817 819 822 824 826 827 829 831 833 834 835 836
728 731 734 738 742 747 751 754 758 761 763 764 766 769 773 777 781 784 786 789 791 793 796 798 800 803 805 808 811 813 816 818 821 823 824 826 828 830 832 833 834 835
725 728 732 736 740 745 748 752 755 757 758 760 762 765 769 773 776 779 782 786 788 791 793 796 798 801 804 807 810 812 815 817 819 821 823 825 827 829 830 832 833 834
722 726 729 733 737 742 745 748 751 752 754 756 758 761 766 770 773 776 779 782 785 788 791 793 796 799 802 805 809 811 814 816 818 820 822 824 826 827 829 830 831 832
718 723 727 731 735 739 742 744 746 748 750 753 755 759 763 767 770 773 776 779 782 785 788 791 794 797 800 803 806 809 811 814 817 818 820 822 824 826 827 829 830 831
716 720 724 729 733 736 738 739 741 744 746 748 751 755 759 763 767 771 774 777 780 783 786 789 792 795 798 801 804 807 809 812 814 817 819 821 822 824 826 827 828 830
714 718 722 726 730 733 734 735 737 740 743 746 751 754 758 762 767 771 773 774 778 782 785 788 790 793 796 799 802 806 808 810 812 815 817 819 821 822 824 825 826 828
712 717 721 724 726 728 731 733 736 740 743 748 752 756 759 762 766 768 770 772 776 780 784 787 789 791 794 797 800 803 805 807 810 812 814 816 818 820 821 822 824 825
Wind_Speed
36 37 36 35 35 35 36 35 33 31 32 32 31 30 28 26 24 22 20 18 16 14 15 15 15 15 15 14 14 14 14 14 14 14 14 14 13 12 12 11 11 12
37 36 35 35 35 35 35 36 35 33 33 33 32 30 28 26 24 22 20 18 16 15 15 16 16 15 15 14 14 14 14 14 14 14 14 14 13 12 12 11 11 11
37 36 36 36 35 35 35 37 36 34 34 34 33 31 29 27 25 23 20 19 17 16 16 16 16 15 14 14 13 14 14 14 14 14 14 14 13 13 12 12 11 11
37 37 37 36 36 35 35 36 35 34 35 35 33 31 29 27 25 23 21 19 18 17 17 16 16 15 14 13 13 13 13 13 14 15 15 14 14 13 13 12 12 11
37 36 36 36 36 35 35 36 35 34 35 34 33 31 29 28 26 24 22 20 18 18 17 17 16 15 14 14 13 13 14 14 14 15 15 15 14 13 13 13 13 13
36 36 36 36 36 36 36 35 35 35 35 34 33 31 30 29 27 25 23 21 20 19 18 17 17 16 15 15 14 14 15 15 16 16 16 16 15 14 14 14 15 15
36 36 37 36 36 36 36 35 35 35 35 34 33 32 31 30 28 26 24 22 21 20 19 18 18 17 17 16 15 16 16 17 17 17 17 16 16 16 15 15 16 17
37 37 37 36 36 36 35 35 35 34 34 34 34 33 32 31 29 27 25 23 22 21 20 19 18 18 18 17 17 17 18 18 18 18 18 18 18 17 17 18 19 19
37 37 37 37 36 36 35 35 34 34 34 34 35 34 33 31 30 28 26 24 23 22 21 19 19 19 19 19 18 19 19 20 19 19 19 19 19 20 20 21 21 21
37 37 38 37 36 36 35 35 35 34 34 35 35 34 34 32 30 28 26 25 24 23 22 20 20 20 20 20 19 19 20 21 21 20 20 20 20 21 22 22 21 21
36 37 38 39 38 36 35 35 35 35 35 35 35 35 34 33 31 29 27 26 26 24 23 21 21 21 21 21 20 20 20 21 21 21 21 21 21 22 22 21 21 21
36 37 38 39 38 37 36 36 35 35 36 36 35 35 35 34 32 30 28 27 26 25 23 22 22 22 22 21 21 21 21 21 21 21 22 22 22 21 20 20 20 19
37 38 38 38 38 37 37 36 35 35 36 36 36 35 36 35 33 31 29 28 27 25 24 23 23 23 22 22 22 22 22 22 22 22 23 22 21 20 20 20 19 18
38 37 37 37 37 37 37 36 36 36 37 37 36 36 36 36 34 32 30 29 27 26 24 24 24 24 24 23 23 23 23 23 23 23 23 22 21 20 19 20 19 17
37 36 36 37 36 37 37 36 36 37 38 37 37 37 37 36 34 32 31 30 28 26 25 25 25 25 24 24 24 24 24 23 23 23 23 22 21 20 19 19 18 17
36 36 36 36 36 37 38 38 37 37 38 37 37 37 37 35 34 33 32 31 29 27 26 26 26 25 25 24 25 25 24 23 23 24 23 22 22 20 20 19 18 16
35 35 36 37 36 37 38 39 39 38 38 37 37 37 37 36 35 35 33 32 30 29 28 27 27 26 25 25 25 25 25 25 24 24 24 22 21 21 21 20 18 15
35 35 36 37 37 37 38 39 37 36 37 37 37 37 37 37 36 35 34 32 31 29 28 28 27 26 25 26 26 26 25 25 25 24 24 23 21 21 21 20 18 16
35 35 35 36 37 37 38 38 36 35 36 38 39 39 37 36 35 34 34 33 31 30 29 29 27 27 26 27 27 26 26 26 25 24 24 23 22 22 22 21 18 16
34 35 36 36 37 37 37 37 37 37 38 40 40 39 36 34 35 36 35 33 32 31 30 30 28 27 27 27 27 27 27 26 25 24 25 24 23 24 23 20 18 16
34 35 35 36 37 37 37 37 39 40 41 41 41 39 37 37 38 38 36 34 34 33 32 31 30 29 28 28 28 28 27 27 25 25 25 24 24 24 22 20 18 16
36 35 36 37 38 38 37 37 39 40 40 41 40 38 37 38 39 39 37 36 35 34 34 33 31 30 29 28 28 28 28 27 25 24 24 25 25 23 21 19 17 16
37 37 35 36 38 38 38 39 40 40 40 40 38 35 35 37 39 38 37 37 36 36 35 34 33 31 30 30 29 29 29 28 25 25 25 25 24 23 22 20 17 16
37 37 37 37 38 39 40 42 42 42 42 42 39 37 37 39 39 38 36 36 37 37 36 35 34 33 32 31 30 31 31 28 26 26 27 25 23 23 22 20 18 17
36 36 36 38 40 41 42 42 42 42 39 37 36 36 36 36 35 35 35 35 35 36 36 35 34 33 33 32 31 32 31 28 26 28 28 26 25 24 23 20 19 20
35 34 34 38 43 44 42 39 37 34 30 30 32 32 32 32 34 35 34 33 33 34 35 35 34 33 34 34 32 33 32 28 27 29 29 27 26 26 24 22 21 21
Wind_Direction
197 196 195 192 193 196 198 197 199 201 202 202 204 205 205 206 207 209 211 212 213 216 217 216 216 218 221 226 230 231 229 225 219 215 212 209 208 206 202 197 196 197
197 196 194 192 193 196 197 198 202 206 207 207 208 208 208 207 207 207 209 209 210 213 216 216 218 220 223 227 230 228 222 217 212 207 205 203 201 198 194 190 188 190
197 196 194 193 194 195 197 199 202 205 208 207 208 209 209 208 207 208 210 212 212 214 215 217 219 220 223 226 226 223 216 212 207 201 200 199 197 193 188 187 185 183
197 196 194 194 195 196 197 198 197 200 205 206 207 209 209 208 208 209 211 213 215 216 216 217 219 220 221 222 220 215 210 208 203 199 196 193 191 190 185 183 180 175
197 195 193 194 195 197 197 197 197 199 202 204 206 208 208 207 207 208 211 212 214 218 217 217 218 218 218 218 215 211 205 202 198 196 194 187 184 186 185 183 177 169
196 194 192 194 195 197 198 199 200 201 202 203 205 206 206 206 206 208 211 213 215 217 217 216 215 214 214 215 212 209 205 200 194 191 191 185 180 182 182 180 175 166
194 192 192 194 195 197 199 200 201 201 201 202 204 205 206 205 206 209 212 214 215 216 216 215 214 212 211 211 208 206 202 199 193 189 189 185 181 180 178 177 174 166
192 191 191 193 195 197 199 200 201 201 200 201 203 205 207 207 208 208 210 214 215 215 215 214 215 213 211 209 206 203 199 195 193 189 188 185 182 179 175 173 172 168
191 190 190 192 195 196 198 199 200 201 201 202 203 205 207 208 210 209 210 212 213 213 213 213 213 213 210 207 206 204 198 194 193 191 189 187 183 178 174 172 170 169
190 189 189 192 194 196 197 198 200 201 200 201 203 204 205 207 209 210 211 212 211 211 210 211 212 210 208 206 206 205 200 195 192 192 193 191 185 179 175 174 174 172
189 189 190 191 194 195 197 197 198 199 198 199 201 203 204 205 206 208 210 211 211 210 211 211 212 209 206 204 203 203 201 197 194 193 195 192 187 182 179 179 180 178
189 190 190 191 192 194 195 196 196 197 196 197 200 203 204 204 205 207 210 211 211 212 212 211 210 208 206 204 202 201 201 199 196 195 196 193 187 184 184 185 185 183
190 191 191 191 191 192 193 195 195 195 196 197 201 204 203 203 205 206 209 210 212 212 211 210 208 206 206 204 202 201 201 199 197 197 197 194 190 189 190 193 193 191
191 191 191 190 190 190 191 193 194 195 196 198 200 202 204 204 205 205 207 209 211 211 209 208 207 205 204 204 202 202 202 200 198 198 196 192 190 192 194 197 197 194
190 190 190 189 189 188 189 192 194 194 195 196 198 201 203 204 205 206 206 207 208 208 208 207 206 205 205 204 203 202 201 199 198 198 195 191 189 191 194 195 194 192
189 188 187 187 187 187 187 190 194 193 193 193 196 199 201 203 203 204 206 206 205 205 206 206 206 206 206 206 205 203 200 198 198 197 194 193 193 191 191 192 192 191
187 186 185 185 186 185 186 189 192 192 190 190 192 196 200 201 202 202 204 206 205 204 205 206 205 206 206 206 206 204 201 199 198 196 196 198 198 195 192 191 190 190
185 184 183 183 184 184 185 188 190 190 188 188 191 195 198 200 199 200 203 204 204 204 205 206 206 205 206 205 204 204 203 202 199 197 198 199 199 199 198 194 190 191
183 182 181 182 182 183 184 186 187 188 187 188 191 196 198 196 196 199 203 203 203 204 205 206 206 205 205 204 203 204 204 203 201 200 201 200 200 202 202 196 193 194
182 180 180 180 181 182 183 185 187 189 190 191 192 194 194 192 194 199 202 203 204 205 206 206 206 205 204 203 203 204 204 202 202 203 205 205 203 203 202 200 200 201
182 181 180 179 180 182 183 185 188 190 192 192 192 192 192 192 195 199 200 202 206 206 205 206 205 204 203 202 203 204 203 202 204 206 207 207 205 205 205 205 207 208
182 182 181 178 179 181 184 187 190 192 191 192 192 191 191 192 195 197 199 202 205 205 205 205 205 203 201 200 202 204 202 202 205 207 207 206 206 207 208 208 211 214
182 182 180 178 178 181 185 189 192 193 193 193 190 187 188 191 193 195 199 202 203 203 203 203 203 202 200 199 200 202 200 201 205 207 206 206 207 209 209 209 214 218
183 182 180 177 178 183 189 192 194 195 196 194 189 186 190 193 192 193 197 201 203 203 202 202 202 200 198 199 201 201 199 201 205 206 205 206 207 208 210 213 217 220
183 183 181 177 180 189 195 196 196 196 196 191 187 187 190 190 189 191 195 199 202 203 202 203 203 199 197 199 200 200 201 203 205 204 204 206 207 208 210 214 218 220
181 181 179 178 183 193 198 199 198 196 190 183 183 187 190 190 191 193 194 196 198 201 202 203 203 199 197 199 200 201 203 204 204 204 205 207 208 208 211 214 217 221